Regional Weather Roundup
Issued by NWS

Home | Current Version | Previous Version | Text Only | Print | Product List | Glossary Off
Versions: 1 2 3 4 5 6 7 8 9 10 11 12 13 14 15 16 17 18 19 20 21 22 23 24 25 26 27 28 29 30 31 32 33 34 35 36 37 38 39 40 41 42 43 44 45 46 47 48 49 50

000
ASUS43 KLSX 031107
RWRMO

WEATHER SUMMARY FOR MISSOURI
NATIONAL WEATHER SERVICE SPRINGFIELD MO
600 AM CDT MON AUG 03 2015

NOTE: "FAIR" INDICATES FEW OR NO CLOUDS BELOW 12,000 FEET WITH NO
       SIGNIFICANT WEATHER AND/OR OBSTRUCTIONS TO VISIBILITY.
       CURRENT SKY AND/OR WEATHER CONDITIONS ARE NOT AVAILABLE FOR
       CHILLICOTHE AND FARMINGTON.

MOZ001>031-035>038-043-044-053-054-031200-
...NORTHERN AND WESTERN MISSOURI...

CITY           SKY/WX    TMP DP  RH WIND       PRES   REMARKS
KANSAS CTY INT PTCLDY    68  65  90 S7        29.90F
KANSAS C DTWN  CLEAR     73  66  78 SW5       29.90F
LEE`S SUMMIT   CLEAR     70  67  90 S5        29.92S
ST JOSEPH      MOCLDY    71  65  81 SW5       29.89S
CHILLICOTHE      N/A     71  63  75 N8        29.90R
KIRKSVILLE     PTCLDY    66  60  81 N9        29.89S

$$
MOZ066>068-077>081-088>096-101>105-031200-
...SOUTHWEST MISSOURI...

CITY           SKY/WX    TMP DP  RH WIND       PRES   REMARKS
SPRINGFIELD    CLEAR     68  63  84 S6        29.94S
JOPLIN         CLEAR     68  65  90 CALM      29.94S

$$
MOZ032>034-039>042-045>050-055>058-069>072-031200-
...CENTRAL MISSOURI...

CITY           SKY/WX    TMP DP  RH WIND       PRES   REMARKS
COLUMBIA       CLOUDY    70  66  87 SW3       29.88R
JEFFERSON CITY CLOUDY    79  64  60 CALM      29.88R
ROLLA          PTCLDY    68  64  87 SW8       29.91R
SEDALIA        PTCLDY    77  65  66 W7        29.90R
WHITEMAN AFB   PTCLDY    70  66  86 N7        29.89R
WARRENSBURG    CLEAR     68  64  88 NW3       29.90S
OSAGE BEACH    PTCLDY    73  64  73 SW5       29.91R

$$
MOZ051-052-059>065-031200-
...EAST CENTRAL MISSOURI...

CITY           SKY/WX    TMP DP  RH WIND       PRES   REMARKS
ST LOUIS INTL  MOCLDY    77  65  66 NW6       29.88R
SPIRIT OF STL  MOCLDY    74  68  81 W3        29.85R
ST CHARLES     MOCLDY    77  66  68 W5        29.86R

$$
MOZ072>076-082>087-097>100-106>115-031200-
...SOUTH CENTRAL AND SOUTHEAST MISSOURI...

CITY           SKY/WX    TMP DP  RH WIND       PRES   REMARKS
CAPE GIRARDEAU CLEAR     73  70  90 SW5       29.87S
FARMINGTON     MOCLDY    73  64  73 NW3       29.94R
POPLAR BLUFF   CLEAR     72  70  93 SW5       29.88R
WEST PLAINS    CLEAR     70  66  87 SW7       29.95S

$$



USA.gov is the U.S. government's official web portal to all federal, state and local government web resources and services.